#timestamp,LO_Frequency,Hit,StdDev 
1639710015.4,286046998.7,P
1639710035.2,286047000.9,P
1639710055.1,286047000.5,N
1639710056.0,286047000.5,N
1639710075.8,286047000.1,N
1639710095.6,286046999.7,N
1639710115.5,286047000.2,N
1639710135.3,286047000.6,N
1639710155.1,286047002.4,Y
1639710175.9,286046999.7,P
1639710195.7,286047003.7,P
1639710215.6,286047002.0,N
1639710235.4,286047002.5,N
1639710255.2,286047000.2,N
1639710275.1,286046999.9,N
1639710276.0,286046999.9,N
1639710295.8,286047002.2,N
1639710315.6,286047001.0,N
1639710335.5,286047001.1,N
1639710355.3,286047000.6,N
1639710375.2,286047000.0,N
1639710395.9,286047000.5,N
1639710415.7,286047000.1,N
1639710435.6,286047002.8,N
1639710455.4,286047002.4,N
1639710475.2,286047002.1,N
1639710495.1,286047002.9,N
1639710496.0,286047002.9,N
1639710515.8,286047001.8,N
1639710535.7,286047001.9,N
1639710555.5,286047002.1,N
1639710575.3,286047002.4,N
1639710595.2,286047000.0,N
1639710615.0,286047000.6,N
1639710615.9,286047000.6,N
1639710635.8,286047000.4,N
1639710655.6,286047000.8,N
1639710675.4,286047000.7,N
1639710695.3,286046998.7,N
1639710715.1,286046996.9,N
1639710735.9,286046996.5,N
1639710755.7,286046999.1,N
1639710775.8,286047000.7,N
1639710795.7,286046999.7,N
1639710815.5,286047000.3,N
1639710835.3,286047002.8,N
1639710855.2,286047000.5,N
1639710875.0,286046999.9,N
1639710875.9,286046999.9,N
1639710895.7,286047000.2,N
1639710915.6,286046999.7,N
1639710935.4,286046999.9,N
1639710955.3,286047000.2,N
1639710975.1,286046999.8,N
1639710976.0,286046999.8,N
1639710995.8,286047000.1,N
1639711015.7,286047002.4,N
1639711035.5,286047000.3,N
1639711055.3,286046999.8,N
1639711075.2,286047002.6,N
1639711095.0,286047000.9,N
1639711095.9,286047000.9,N
1639711115.8,286047002.4,N
1639711135.6,286047001.1,N
1639711155.4,286047001.2,N
1639711175.3,286047000.4,N
1639711195.1,286047000.1,N
1639711215.8,286046999.9,N
1639711235.7,286047003.6,N
1639711255.5,286047002.2,N
1639711275.4,286047000.5,N
1639711295.2,286047002.0,N
1639711315.0,286047001.6,N
1639711315.9,286047001.6,N
1639711335.8,286047002.6,N
1639711355.6,286047002.1,N
1639711375.4,286047000.2,N
1639711395.3,286047000.3,N
1639711415.1,286047000.2,N
1639711435.9,286047000.3,N
1639711455.7,286047000.3,N
1639711475.5,286046999.7,N
1639711495.4,286046999.9,N
1639711515.2,286046998.6,N
1639711535.1,286046999.4,N
1639711536.0,286046999.4,N
1639711555.8,286046999.1,N
1639711575.6,286046998.9,N
1639711595.5,286047000.9,N
1639711615.3,286046998.2,N
1639711635.1,286046998.5,N
1639711655.9,286046996.9,N
1639711675.7,286046997.5,N
1639711695.6,286046996.5,N
1639711715.4,286046998.9,N
1639711735.2,286047000.4,N
1639711755.1,286047001.1,N
1639711756.0,286047001.1,N
1639711775.8,286047000.7,N
1639711795.7,286046998.5,N
1639711815.5,286047001.0,N
1639711835.3,286047000.7,N
1639711855.2,286047000.6,N
1639711875.0,286046999.7,N
1639711875.9,286046999.7,N
1639711895.8,286047002.7,N
1639711915.6,286047000.1,N
1639711935.4,286047002.4,N
1639711955.3,286047004.3,Y
1639711975.1,286047001.9,P
1639711995.9,286047001.6,N
1639712015.7,286047002.4,N
1639712035.5,286047002.5,N
1639712055.4,286047002.1,N
1639712075.2,286047002.5,N
1639712095.0,286047002.0,N
1639712095.9,286047002.0,N
1639712115.8,286047001.5,N
1639712135.6,286047001.4,N
1639712155.5,286047001.3,N
1639712175.3,286047001.9,N
1639712195.1,286047004.4,Y
1639712215.9,286047002.8,P
1639712235.7,286047002.5,P
1639712255.6,286047002.4,P
1639712275.4,286047002.2,Y
1639712295.2,286046999.2,P
1639712315.1,286046998.8,N
1639712316.0,286046998.8,N
1639712335.8,286046998.7,N
1639712355.7,286046998.2,N
1639712375.5,286046996.7,N
1639712395.3,286046997.5,N
1639712415.2,286046996.7,N
1639712435.0,286046996.7,N
1639712435.9,286046996.7,N
1639712455.7,286046999.4,N
1639712475.6,286046996.6,N
1639712495.4,286046996.6,N
1639712515.3,286046999.5,N
1639712535.1,286046999.1,N
1639712555.8,286046998.6,N
1639712575.7,286046999.5,N
1639712595.5,286046997.0,N
1639712615.4,286046997.3,N
1639712635.2,286046995.2,Y
1639712655.0,286046997.0,P
1639712655.9,286046997.0,P
1639712675.8,286046999.1,N
1639712695.6,286046998.4,N
1639712715.5,286046999.0,N
1639712735.3,286046999.1,N
1639712755.1,286046999.2,N
1639712775.9,286046998.6,N
1639712795.7,286046998.9,N
1639712815.5,286046998.1,N
1639712835.4,286046998.1,N
1639712855.2,286047001.0,N
1639712875.1,286047000.8,N
1639712876.0,286047000.8,N
1639712895.8,286046998.6,N
1639712915.6,286047000.9,N
1639712935.5,286047001.0,N
1639712955.3,286047001.2,N
1639712975.2,286047001.2,N
1639712995.9,286047000.9,N
1639713015.7,286047001.0,N
1639713035.6,286047000.9,N
1639713055.4,286046998.4,N
1639713075.2,286046999.8,N
1639713095.1,286047000.6,N
1639713096.0,286047000.6,N
1639713115.8,286047000.5,N
1639713135.7,286047001.0,N
1639713155.5,286047000.5,N
1639713175.3,286046998.1,N
1639713195.2,286047001.1,N
1639713215.0,286046998.4,N
1639713215.9,286046998.4,N
1639713235.8,286046999.2,N
1639713255.6,286046998.6,N
1639713275.4,286046998.4,N
1639713295.3,286046999.0,N
1639713315.1,286046999.1,N
1639713335.8,286046999.4,N
1639713355.7,286047000.6,N
1639713375.5,286046998.4,N
1639713395.4,286046999.4,N
1639713415.2,286047000.3,N
1639713435.0,286047000.6,N
1639713435.9,286047000.6,N
1639713455.8,286047000.4,N
1639713475.6,286047001.0,N
1639713495.4,286047000.4,N
1639713515.3,286047000.1,N
1639713535.1,286047000.0,N
1639713555.9,286047002.2,N
1639713575.7,286047002.4,N
1639713595.5,286047000.2,N
